GFSFLT2_250_rhum_000.txt.gz
RH
34 31 32 36 37 42 46 47 49 54 56 63 74 75 65 58 67 63 79 80 76 88 94 82 80 79 73
24 25 31 34 34 40 44 44 49 63 67 61 66 68 69 54 59 68 86 74 78 94 90 90 82 93 84
17 21 22 25 28 32 36 38 41 53 57 64 72 67 59 53 60 89 88 76 83 88 89 93 99 89 78
19 22 23 22 21 26 37 40 42 35 59 53 63 52 59 55 74 88 80 99 100 94 95 95 92 88 72
16 16 19 23 24 26 26 30 40 57 69 55 44 44 78 54 98 98 98 100 100 92 86 98 99 85 90
10 12 15 18 17 16 21 24 25 42 54 56 44 36 50 100 100 100 100 100 100 100 100 100 99 100 98
9 13 14 14 13 15 18 22 24 34 39 37 29 36 67 100 100 100 100 100 100 100 100 100 100 100 81
8 10 11 13 14 15 18 20 25 31 29 22 30 59 95 100 100 100 100 100 100 100 100 100 100 87 100
6 7 8 9 11 10 11 12 14 16 17 20 42 56 99 100 100 100 100 100 100 100 100 100 100 100 95
6 8 10 10 10 13 14 14 16 21 26 33 40 59 100 100 100 100 100 100 97 100 100 100 100 97 99
10 11 12 13 15 15 17 20 22 25 29 38 54 93 100 100 100 100 100 100 100 100 100 100 99 99 96
13 13 14 15 17 18 19 22 24 29 45 68 91 99 100 100 100 100 100 100 100 96 100 94 98 100 90
13 13 14 15 17 19 22 24 30 46 59 54 54 67 79 100 100 100 100 100 100 96 94 98 98 91 98
11 14 14 15 16 19 24 36 46 44 39 46 68 84 99 100 100 100 100 100 100 100 94 90 91 94 70
11 16 18 19 20 29 39 37 24 38 86 100 100 100 100 100 100 100 100 98 98 98 87 90 81 63 62
17 21 24 27 28 29 19 14 25 68 94 100 100 100 100 98 100 100 100 94 91 88 90 66 56 50 40
25 23 14 12 13 16 14 26 53 87 90 90 93 94 100 100 100 93 92 90 80 65 58 46 36 31 24

GFSFLT2_250_rhum_003.txt.gz
RH
16 19 20 22 23 25 28 32 28 29 30 36 42 41 38 38 44 45 45 67 89 87 82 90 75 74 86
14 16 17 18 19 24 24 26 32 34 40 38 36 37 42 52 53 45 57 72 78 84 88 93 75 81 82
10 12 15 16 16 18 20 24 26 32 33 40 41 42 44 53 57 64 68 70 91 97 97 84 82 83 91
6 6 8 11 12 13 13 16 21 24 25 30 35 35 37 59 62 74 83 83 100 100 90 80 84 91 100
5 7 9 9 10 12 12 15 18 21 20 23 25 26 32 46 61 68 76 78 91 99 89 84 79 97 98
6 7 7 9 10 8 7 10 14 13 13 17 20 28 41 49 49 50 60 66 75 82 82 87 100 100 100
6 6 6 6 5 5 5 6 7 10 12 15 20 24 29 34 47 50 55 62 75 86 100 100 100 100 100
6 7 7 7 6 6 6 7 8 11 14 16 20 20 27 39 44 45 52 56 74 100 100 100 100 100 100
7 8 8 8 7 7 8 7 9 10 11 10 15 20 25 33 34 35 47 56 95 100 100 100 100 100 100
8 9 10 10 10 10 10 8 8 11 10 10 12 14 16 21 24 28 44 80 100 100 100 100 100 100 100
7 7 9 9 9 10 9 11 13 14 13 14 15 18 20 24 34 49 75 98 100 100 100 100 100 100 100
7 7 9 9 11 11 12 14 15 16 17 18 21 25 31 35 37 51 76 90 100 100 100 100 100 100 100
7 10 11 10 10 12 14 14 16 18 20 22 24 28 31 39 50 75 93 100 100 100 100 100 100 100 100
9 10 10 9 10 12 14 15 17 20 23 29 35 47 64 83 90 97 100 96 89 91 100 100 100 100 100
9 9 10 10 11 14 16 17 19 21 26 44 52 49 51 56 60 72 90 91 94 100 100 100 100 100 100
8 10 10 12 16 18 20 22 24 34 39 30 30 36 52 74 89 98 100 100 100 100 100 100 99 97 87
9 10 14 20 22 24 25 24 21 20 21 25 40 75 84 84 92 95 92 94 95 91 90 75 79 89 82

GFSFLT2_250_rhum_006.txt.gz
RH
8 8 8 7 10 11 12 13 16 20 22 21 23 21 23 28 33 42 52 45 44 42 40 54 54 57 59
7 8 7 7 7 8 8 9 11 13 15 15 17 18 19 26 31 37 45 52 61 42 56 50 55 59 65
6 6 8 7 7 6 6 8 9 10 11 13 14 16 17 18 22 28 36 45 46 67 54 66 59 67 80
4 5 5 8 6 5 5 5 6 7 8 9 10 11 13 14 19 21 27 33 39 58 81 88 69 96 95
3 4 5 6 5 5 4 4 5 5 6 8 11 12 14 16 18 18 24 34 36 37 48 59 84 100 100
4 4 5 4 5 4 4 4 6 5 6 9 8 16 19 18 21 24 27 27 29 35 38 54 75 96 100
4 5 5 5 5 6 5 6 6 7 6 7 7 8 10 10 12 14 20 21 26 32 50 69 89 100 100
3 4 5 6 6 6 7 8 9 9 7 9 7 8 7 7 8 10 17 22 34 45 55 63 73 89 99
4 4 5 5 5 6 8 10 11 10 8 10 8 7 8 8 9 13 18 25 31 36 48 58 76 80 87
4 4 5 6 6 7 8 8 10 11 9 11 11 10 9 9 10 13 14 20 28 34 42 52 62 82 100
3 4 5 6 6 6 7 8 10 11 8 11 10 9 9 9 11 13 15 19 22 26 36 48 72 98 100
3 4 5 5 6 6 7 10 11 10 11 11 10 12 14 15 16 18 20 22 24 30 39 70 90 100 100
3 4 5 6 6 8 10 10 11 13 14 15 16 17 18 20 22 24 30 38 42 52 71 82 96 100 100
4 5 6 6 8 9 10 9 11 14 16 17 19 20 22 23 25 29 35 40 54 62 83 90 100 100 100
6 6 6 7 9 10 10 11 13 16 16 18 19 22 30 39 50 62 72 79 78 75 84 90 93 96 98
7 7 8 9 10 11 13 16 17 16 17 19 23 33 47 56 60 56 61 65 68 80 87 92 96 91 92
9 9 10 10 11 18 21 24 26 30 39 41 40 34 35 36 38 47 53 55 67 79 83 87 90 94 96

GFSFLT2_250_rhum_009.txt.gz
RH
5 5 5 5 6 6 7 8 8 9 10 9 9 9 11 11 12 13 14 16 21 23 33 47 37 37 49
4 4 4 4 4 5 5 6 6 7 6 7 7 7 9 10 12 13 13 16 19 20 30 36 32 27 36
2 3 3 4 4 4 4 4 4 4 4 5 5 6 6 8 9 11 13 15 19 20 28 38 47 49 36
2 2 3 3 3 3 3 4 4 4 4 4 4 5 6 6 6 7 10 9 12 19 25 35 52 66 71
2 2 2 3 3 3 3 4 4 4 4 4 4 4 5 6 5 6 6 8 9 12 14 20 32 56 83
2 2 2 2 3 3 4 4 5 5 4 5 4 5 6 6 6 5 6 8 12 15 17 21 29 42 70
2 2 2 2 2 3 4 4 4 6 5 7 5 6 6 6 6 6 7 9 10 21 26 28 34 41 50
2 2 2 2 2 3 3 4 5 5 6 7 6 7 8 8 8 8 9 9 10 20 30 34 39 43 48
2 2 2 2 2 3 4 5 5 5 6 7 6 9 10 9 9 10 10 9 9 11 12 16 21 32 39
3 3 3 3 3 3 4 4 4 4 6 7 9 10 11 11 12 12 12 10 10 10 11 12 20 26 45
3 4 4 3 3 3 3 4 5 5 7 8 8 9 11 11 13 14 13 12 11 11 14 19 29 44 56
4 4 4 4 4 4 4 5 5 6 8 7 8 11 11 12 14 12 11 10 11 12 14 21 29 39 50
5 5 5 4 4 5 6 6 6 8 9 11 12 12 12 13 14 15 16 16 17 17 17 20 27 35 46
6 6 6 6 6 7 7 8 8 9 8 9 12 15 16 18 18 19 19 20 20 22 26 28 32 37 45
6 7 7 8 8 8 9 9 10 9 9 13 15 17 18 19 21 22 24 25 27 31 32 38 42 54 75
8 8 9 9 10 10 10 11 11 12 15 16 18 19 20 21 23 26 28 29 33 40 48 62 64 78 84
10 10 11 11 11 12 12 13 17 18 17 17 17 20 24 31 42 54 58 63 72 82 85 84 87 88 97

GFSFLT2_250_rhum_012.txt.gz
RH
4 5 4 4 4 3 3 3 3 3 3 3 3 4 4 5 6 7 9 10 12 14 15 19 19 20 32
4 3 3 3 2 3 3 2 2 3 3 3 3 3 4 4 4 5 7 8 9 11 12 14 14 16 29
2 2 2 2 2 2 3 3 2 3 3 2 2 2 3 3 4 4 5 6 8 8 9 10 13 15 27
2 2 2 2 2 2 2 2 3 3 3 2 2 2 3 3 3 4 4 5 6 7 8 11 15 17 22
2 2 2 2 1 2 1 2 2 2 2 2 2 2 3 3 4 4 4 5 6 8 10 11 14 18 23
2 2 2 2 2 2 2 2 2 2 1 2 2 3 3 3 4 5 5 5 6 6 7 9 11 19 24
2 2 2 1 1 2 2 2 2 2 2 3 2 3 3 4 5 5 6 6 6 7 8 8 9 16 26
2 2 1 1 1 2 2 2 2 2 2 2 3 3 4 4 5 6 7 8 7 8 8 8 8 11 15
2 2 2 2 2 2 3 3 3 2 3 3 3 4 4 4 6 7 8 10 11 10 9 10 12 14 16
2 2 2 3 3 3 4 3 3 3 4 4 4 5 5 6 7 8 11 12 12 12 11 10 10 14 23
2 3 4 4 4 4 4 4 4 4 5 4 5 5 6 6 7 10 10 13 14 12 12 12 11 11 21
4 4 5 5 5 5 5 5 5 5 4 5 5 5 6 7 9 10 12 14 14 13 13 13 11 11 19
6 6 6 5 5 5 5 5 5 6 6 6 6 6 7 8 10 12 12 13 14 14 13 12 12 11 12
6 6 6 6 6 6 6 6 7 7 7 8 9 10 12 14 13 12 12 12 13 12 12 12 12 13 16
7 7 7 7 8 8 8 9 9 10 10 10 9 9 11 12 14 15 15 16 16 14 13 13 14 16 24
8 9 9 9 9 9 10 11 11 11 11 10 12 14 16 17 19 20 20 20 20 20 20 21 20 20 22
10 11 11 11 10 11 11 11 11 12 15 16 16 17 18 19 20 21 23 24 26 27 25 26 31 30 28

GFSFLT2_250_rhum_018.txt.gz
RH
22 24 20 11 8 5 4 3 3 3 2 2 2 2 2 2 2 3 2 3 3 3 4 4 5 6 8
12 8 6 5 4 4 4 4 3 2 2 2 2 2 2 2 2 2 2 2 2 2 3 3 4 5 5
6 5 4 3 4 4 4 3 2 2 2 2 2 2 1 1 2 2 1 1 2 2 3 4 4 4 4
4 4 3 4 3 2 3 2 2 2 2 2 2 1 1 1 1 2 2 2 2 2 2 3 3 4 4
4 3 4 3 2 2 2 2 2 1 2 2 2 2 2 1 1 1 1 1 2 2 2 3 3 4 5
3 3 3 2 2 2 2 2 2 1 3 2 2 1 1 1 1 1 1 1 2 2 2 3 3 4 4
3 2 2 2 2 2 2 2 2 2 2 2 1 2 1 1 1 1 1 1 2 2 2 3 3 4 4
3 2 2 2 2 2 2 2 2 2 2 2 3 2 2 2 2 2 2 2 2 2 2 3 4 4 4
3 2 2 2 2 2 2 2 2 3 4 4 4 4 3 3 3 3 3 3 3 3 3 4 4 4 4
2 2 2 3 3 3 4 4 4 5 5 5 5 5 4 4 3 3 3 3 3 3 3 3 3 4 4
2 3 3 3 4 5 5 5 5 5 6 6 5 5 4 4 4 3 3 3 3 4 4 4 4 4 4
3 4 3 4 6 6 6 6 6 6 6 6 5 5 4 5 4 4 4 4 4 5 5 5 5 5 5
4 4 6 7 7 7 7 7 7 7 7 7 6 5 5 5 5 6 6 6 6 6 6 6 6 7 7
5 7 8 8 8 8 8 8 8 9 9 8 7 7 7 7 7 7 7 8 8 8 8 8 8 8 8
8 9 10 10 10 10 9 9 10 10 11 10 9 10 9 8 8 8 8 8 9 9 10 11 12 11 10
10 11 10 11 11 12 11 11 11 11 11 11 11 10 10 11 12 11 9 10 11 12 13 14 14 14 13
11 11 13 14 14 14 16 14 13 14 13 12 14 13 12 12 14 13 15 14 13 14 16 18 18 18 16

GFSFLT2_250_rhum_021.txt.gz
RH
27 26 25 22 19 12 6 4 4 4 4 3 3 3 3 3 3 3 4 4 3 3 3 3 4 4 4
21 17 13 8 6 5 5 4 3 3 2 2 2 2 2 2 2 2 2 2 2 2 2 2 2 2 3
9 7 5 5 4 4 4 3 2 2 2 2 2 2 2 2 2 2 2 2 2 2 2 2 2 2 2
4 4 4 4 4 3 4 2 2 2 2 2 2 2 2 2 2 2 1 1 1 1 2 2 2 2 2
4 4 4 4 3 3 3 3 2 2 2 2 2 2 2 2 2 2 2 2 2 1 1 1 2 2 3
4 4 3 3 3 2 2 2 2 2 2 1 2 2 2 2 2 2 2 2 2 2 2 1 1 2 2
3 3 3 3 3 2 2 2 2 2 2 2 2 2 2 2 2 2 1 1 1 1 1 1 1 2 2
3 3 3 3 2 2 2 2 2 3 3 3 3 3 3 3 3 2 2 2 1 1 1 1 1 1 2
3 3 3 2 2 2 3 4 3 3 4 3 4 4 4 4 3 3 3 2 2 2 1 1 1 1 2
3 2 2 2 3 4 4 4 4 4 4 4 4 4 5 5 4 4 3 3 3 2 2 2 2 2 2
2 2 2 3 4 4 5 5 5 5 5 5 5 5 5 5 4 4 4 3 3 3 3 3 3 3 2
2 3 4 4 5 6 6 7 7 6 6 6 6 6 6 6 4 4 4 4 4 3 3 2 2 3 3
4 4 5 6 7 7 7 8 8 8 7 7 7 7 6 6 5 5 5 5 4 4 4 4 4 4 4
6 6 8 8 8 8 9 9 8 9 9 9 8 8 8 8 7 6 6 6 6 6 5 6 6 6 6
8 9 9 10 11 11 9 9 9 10 10 10 10 10 8 8 9 8 8 7 7 7 7 6 6 6 6
10 12 14 15 15 14 11 10 10 10 10 11 10 11 11 10 8 9 9 9 9 9 8 8 8 7 7
13 14 15 17 18 18 16 17 18 16 14 12 12 11 12 12 12 10 10 11 11 11 11 10 11 10 10

GFSFLT2_250_rhum_024.txt.gz
RH
39 41 33 26 22 18 13 9 7 6 4 3 3 4 4 4 4 3 3 3 3 3 3 3 3 3 3
24 20 17 15 13 8 6 5 4 3 3 3 3 3 3 3 3 2 2 2 2 2 2 2 2 2 2
13 11 8 6 5 5 4 4 3 2 2 2 2 2 2 2 2 2 2 2 2 2 2 2 2 2 2
6 4 4 4 3 3 4 3 3 2 2 2 2 2 2 2 2 2 2 2 2 2 2 2 2 2 2
4 3 3 3 3 3 3 3 3 2 3 2 2 2 2 2 2 1 1 1 1 1 1 1 1 2 2
3 3 4 3 3 3 3 3 2 2 3 2 2 2 2 2 2 2 2 2 1 1 1 1 1 1 2
3 3 3 3 3 3 2 2 2 2 2 1 3 2 2 2 2 2 2 2 2 2 1 2 2 2 2
3 3 3 3 3 2 2 2 2 2 3 2 3 3 3 4 3 3 3 3 2 2 2 1 1 1 1
3 3 3 2 2 2 2 2 3 3 3 4 4 4 5 4 4 4 4 4 3 3 2 2 1 1 1
3 2 2 2 3 3 3 4 4 4 5 5 5 5 5 4 4 4 4 4 3 3 2 2 2 1 1
2 3 3 3 4 4 6 6 6 7 6 6 6 5 5 4 4 4 4 4 3 3 3 2 2 2 1
3 3 4 5 6 6 7 7 8 7 7 7 7 7 6 5 5 5 4 4 3 3 3 3 2 2 1
4 5 6 6 7 8 8 8 8 8 8 8 8 7 7 6 5 6 5 4 4 4 3 3 3 3 2
7 8 8 9 11 10 11 9 9 10 10 10 10 9 8 7 6 6 6 5 4 4 4 4 4 4 3
9 9 11 12 13 13 14 12 10 11 10 10 11 11 10 8 8 8 6 6 6 6 5 5 5 5 5
11 12 13 14 14 15 15 15 16 16 14 12 12 12 11 10 9 9 8 7 7 7 6 6 6 6 6
15 16 16 16 15 15 17 17 19 23 20 16 14 13 11 13 11 10 10 8 8 8 8 7 6 6 6

GFSFLT2_250_rhum_027.txt.gz
RH
24 24 20 17 14 12 10 9 7 7 6 5 4 4 4 4 4 4 5 4 4 4 4 4 4 4 4
18 17 13 14 10 7 5 4 3 3 3 3 3 3 3 3 3 2 3 3 3 3 3 3 3 3 3
10 8 6 5 5 4 4 3 2 2 2 2 2 3 2 2 2 2 2 2 2 2 2 2 2 2 2
5 5 4 4 3 3 3 2 2 2 2 2 2 2 2 2 3 2 2 2 2 2 2 2 2 2 2
4 4 3 3 3 3 3 3 2 2 3 2 2 2 2 2 2 2 2 2 2 2 2 2 2 2 2
3 3 3 3 3 2 3 2 3 3 2 2 2 2 2 2 2 2 2 1 2 2 1 1 1 1 1
4 3 3 3 3 2 2 2 2 2 2 1 2 2 2 2 2 2 2 2 2 2 2 2 2 2 2
4 3 3 3 2 2 2 2 2 2 2 2 2 2 3 3 2 3 3 3 2 2 2 2 2 2 2
3 3 2 2 3 2 2 2 2 3 3 4 4 4 4 3 4 4 4 4 3 3 3 3 3 2 2
2 3 3 4 4 4 4 4 5 4 5 5 4 5 6 5 5 5 4 4 5 5 4 4 3 3 2
3 4 4 4 4 6 6 6 6 7 8 7 6 7 6 6 6 5 5 5 5 4 4 4 3 3 2
4 4 4 6 8 8 8 10 10 8 7 8 8 8 8 7 7 6 6 5 5 4 4 3 3 3 2
4 6 8 9 10 11 12 14 12 9 9 9 9 9 9 8 8 7 6 6 5 5 4 3 3 3 2
9 10 11 12 12 12 13 14 14 13 12 11 10 10 10 10 8 8 7 6 6 5 4 3 3 2 2
12 13 14 14 14 14 15 16 15 15 19 15 12 11 11 11 10 8 8 7 6 5 5 4 3 3 2
15 16 16 17 19 22 21 17 18 17 21 21 15 13 12 11 11 8 9 8 7 6 6 5 4 4 3
18 20 22 21 19 19 22 27 18 18 21 23 16 16 15 12 13 9 10 9 8 7 7 6 6 4 4

GFSFLT2_250_rhum_030.txt.gz
RH
20 19 17 16 15 10 6 4 4 3 3 3 3 3 3 3 3 3 3 3 3 3 4 4 4 5 6
21 20 16 12 7 5 4 3 2 2 2 2 2 2 2 2 2 2 2 2 2 2 2 2 2 3 3
17 12 8 6 5 4 3 2 2 2 3 2 2 2 2 2 2 2 2 2 2 2 2 2 2 2 2
8 6 5 5 4 3 3 2 2 3 2 2 2 2 2 2 2 2 2 2 2 2 2 2 2 2 2
6 5 4 4 4 3 3 3 2 3 2 2 2 2 2 2 2 2 2 2 2 2 2 2 2 2 2
5 4 4 4 3 3 3 2 2 2 2 2 2 2 2 2 2 2 2 2 2 2 2 2 2 2 2
5 5 4 4 3 2 2 2 3 3 3 2 2 2 2 3 2 2 2 2 2 2 2 2 2 2 2
5 4 4 3 3 3 3 2 2 4 4 3 3 2 3 4 4 4 3 3 3 3 3 3 3 3 3
4 4 3 4 4 4 3 3 2 4 5 5 5 5 5 5 4 5 5 5 5 4 4 3 3 3 2
4 4 4 5 5 6 7 6 5 6 6 8 8 5 6 6 6 6 5 5 5 4 4 4 4 3 3
4 4 5 5 7 8 9 10 8 9 11 9 7 7 6 7 7 7 7 6 5 5 4 4 4 4 3
5 4 6 8 10 11 12 12 11 12 12 10 9 9 8 8 9 9 8 6 6 5 5 4 3 3 3
5 7 9 10 12 14 16 14 13 12 14 14 13 12 10 9 10 10 8 7 6 6 5 4 3 3 3
9 11 12 14 15 17 18 18 18 15 15 15 17 13 11 11 13 11 9 8 7 7 5 4 4 3 3
13 15 16 17 19 18 18 21 18 19 17 18 18 14 13 14 14 11 10 9 8 7 5 5 4 3 2
16 14 14 14 14 17 18 21 23 21 21 19 19 15 16 17 14 12 10 10 9 7 5 5 4 3 2
13 14 15 16 15 15 18 19 26 19 24 20 22 17 17 18 15 13 10 10 9 7 7 6 5 3 2